Weather History for Paris, TX

Change the Weather History Date:

Friday, October 12, 2012

  Actual Average Record
Temperature  
Mean Temperature 74 °F -  
Max Temperature 84 °F 74 °F 87 °F (2013)
Min Temperature 66 °F 53 °F 50 °F (2001)
Cooling Degree Days 9    
Growing Degree Days 24 (Base 50)    
Moisture  
Dew Point 67 °F    
Average Humidity 82    
Maximum Humidity 100    
Minimum Humidity 62    
Precipitation  
Precipitation 0.00 in - - ()
Sea Level Pressure  
Sea Level Pressure 30.16 in    
Wind  
Wind Speed 8 mph (SSE)    
Max Wind Speed 13 mph    
Max Gust Speed 18 mph    
Visibility 10 miles    
Events      
Averages and records for this station are not official NWS values.
T = Trace of Precipitation, MM = Missing Value Source: NWS Daily Summary

Daily Weather History Graph

Daily Weather History Graph

Search for Another Location

Airport:

Trip Planner

Search our weather history database for the weather conditions in past years. The results will help you decide how hot, cold, wet, or windy it might be!

Date:

Astronomy

Oct. 12, 2012 Rise Set
Actual Time 7:24 AM CDT 6:51 PM CDT
Civil Twilight 6:59 AM CDT 7:16 PM CDT
Nautical Twilight 6:30 AM CDT 7:44 PM CDT
Astronomical Twilight 6:01 AM CDT 8:13 PM CDT
Moon 4:16 AM CDT (10/12) 4:55 PM CDT (10/12)
Length of Visible Light 12h 16m
Length of Day
11h 26m
Waning Crescent, 10% of the Moon is Illuminated
Oct 12
Waning Crescent
Oct 15
New
Oct 21
First Quarter
Oct 29
Full
Nov 6
Last Quarter

Hourly Weather History & Observations

Time (CDT) Temp. Heat Index Dew Point Humidity Pressure Visibility Wind Dir Wind Speed Gust Speed Precip Events Conditions
12:15 AM 68.0 °F - 66.2 °F 94% 30.14 in 10.0 mi SE 9.2 mph - N/A   Clear
12:35 AM 68.0 °F - 66.2 °F 94% 30.15 in 10.0 mi SSE 6.9 mph - N/A   Clear
12:55 AM 68.0 °F - 66.2 °F 94% 30.15 in 10.0 mi SSE 6.9 mph - N/A   Clear
1:15 AM 66.2 °F - 64.4 °F 94% 30.15 in 10.0 mi SSE 6.9 mph - N/A   Clear
1:35 AM 66.2 °F - 64.4 °F 94% 30.15 in 10.0 mi SSE 6.9 mph - N/A   Clear
1:55 AM 68.0 °F - 66.2 °F 94% 30.15 in 10.0 mi South 5.8 mph - N/A   Partly Cloudy
2:15 AM 68.0 °F - 66.2 °F 94% 30.15 in 10.0 mi South 6.9 mph - N/A   Clear
2:35 AM 68.0 °F - 66.2 °F 94% 30.15 in 10.0 mi SSE 5.8 mph - N/A   Clear
2:55 AM 66.2 °F - 64.4 °F 94% 30.15 in 10.0 mi SSE 5.8 mph - N/A   Clear
3:15 AM 66.2 °F - 64.4 °F 94% 30.15 in 10.0 mi SSE 4.6 mph - N/A   Mostly Cloudy
3:35 AM 68.0 °F - 66.2 °F 94% 30.15 in 10.0 mi SSE 5.8 mph - N/A   Overcast
3:55 AM 68.0 °F - 66.2 °F 94% 30.15 in 10.0 mi SSE 5.8 mph - N/A   Overcast
4:15 AM 68.0 °F - 66.2 °F 94% 30.15 in 10.0 mi SSE 5.8 mph - N/A   Overcast
4:35 AM 68.0 °F - 66.2 °F 94% 30.15 in 10.0 mi SSE 5.8 mph - N/A   Mostly Cloudy
4:55 AM 68.0 °F - 66.2 °F 94% 30.15 in 10.0 mi SSE 4.6 mph - N/A   Overcast
5:15 AM 68.0 °F - 66.2 °F 94% 30.16 in 10.0 mi SSE 5.8 mph - N/A   Mostly Cloudy
5:55 AM 68.0 °F - 66.2 °F 94% 30.16 in 10.0 mi South 5.8 mph - N/A   Overcast
6:15 AM 66.2 °F - 64.4 °F 94% 30.16 in 10.0 mi SSE 5.8 mph - N/A   Scattered Clouds
6:35 AM 66.2 °F - 64.4 °F 94% 30.17 in 8.0 mi SSE 5.8 mph - N/A   Clear
6:55 AM 66.2 °F - 64.4 °F 94% 30.17 in 7.0 mi SSE 5.8 mph - N/A   Scattered Clouds
7:15 AM 66.2 °F - 66.2 °F 100% 30.18 in 7.0 mi South 5.8 mph - N/A   Mostly Cloudy
7:35 AM 66.2 °F - 66.2 °F 100% 30.18 in 5.0 mi SSE 5.8 mph - N/A   Scattered Clouds
7:55 AM 66.2 °F - 66.2 °F 100% 30.18 in 4.0 mi SE 5.8 mph - N/A   Scattered Clouds
8:15 AM 68.0 °F - 66.2 °F 94% 30.19 in 5.0 mi South 6.9 mph - N/A   Overcast
8:35 AM 69.8 °F - 68.0 °F 94% 30.19 in 6.0 mi South 6.9 mph - N/A   Overcast
9:15 AM 69.8 °F - 69.8 °F 100% 30.21 in 9.0 mi South 6.9 mph - N/A   Overcast
9:35 AM 71.6 °F - 69.8 °F 94% 30.22 in 10.0 mi South 9.2 mph - N/A   Overcast
9:55 AM 73.4 °F - 69.8 °F 88% 30.22 in 10.0 mi SSW 9.2 mph - N/A   Overcast
10:15 AM 73.4 °F - 69.8 °F 88% 30.22 in 10.0 mi SSW 11.5 mph 17.3 mph N/A   Mostly Cloudy
10:35 AM 75.2 °F - 69.8 °F 83% 30.22 in 10.0 mi SSW 12.7 mph - N/A   Mostly Cloudy
10:55 AM 77.0 °F - 69.8 °F 78% 30.22 in 10.0 mi SSW 10.4 mph - N/A   Mostly Cloudy
11:15 AM 75.2 °F - 69.8 °F 83% 30.22 in 10.0 mi South 10.4 mph - N/A   Overcast
11:35 AM 77.0 °F - 69.8 °F 78% 30.21 in 10.0 mi SSW 10.4 mph - N/A   Overcast
12:15 PM 77.0 °F - 69.8 °F 78% 30.21 in 10.0 mi SSW 11.5 mph - N/A   Overcast
12:35 PM 78.8 °F - 69.8 °F 74% 30.21 in 10.0 mi South 9.2 mph - N/A   Overcast
12:55 PM 80.6 °F 83.2 °F 68.0 °F 65% 30.20 in 10.0 mi SSW 11.5 mph 18.4 mph N/A   Overcast
1:35 PM 80.6 °F 83.2 °F 68.0 °F 65% 30.18 in 10.0 mi SW 9.2 mph - N/A   Mostly Cloudy
1:55 PM 80.6 °F 83.2 °F 68.0 °F 65% 30.18 in 10.0 mi South 6.9 mph - N/A   Overcast
2:15 PM 80.6 °F 83.2 °F 68.0 °F 65% 30.17 in 10.0 mi SSW 5.8 mph - N/A   Overcast
2:35 PM 80.6 °F 83.2 °F 68.0 °F 65% 30.16 in 10.0 mi South 9.2 mph - N/A   Overcast
2:55 PM 82.4 °F 85.4 °F 68.0 °F 62% 30.16 in 10.0 mi South 12.7 mph - N/A   Overcast
3:15 PM 82.4 °F 85.4 °F 68.0 °F 62% 30.15 in 10.0 mi South 10.4 mph - N/A   Mostly Cloudy
3:35 PM 82.4 °F 85.4 °F 68.0 °F 62% 30.15 in 10.0 mi SSW 11.5 mph - N/A   Scattered Clouds
3:55 PM 82.4 °F 85.4 °F 68.0 °F 62% 30.15 in 10.0 mi South 10.4 mph - N/A   Scattered Clouds
4:15 PM 82.4 °F 85.4 °F 68.0 °F 62% 30.15 in 10.0 mi SSW 11.5 mph - N/A   Scattered Clouds
4:35 PM 82.4 °F 85.4 °F 68.0 °F 62% 30.14 in 10.0 mi South 10.4 mph - N/A   Mostly Cloudy
5:15 PM 82.4 °F 85.4 °F 68.0 °F 62% 30.14 in 10.0 mi South 10.4 mph - N/A   Mostly Cloudy
5:55 PM 80.6 °F 83.2 °F 68.0 °F 65% 30.14 in 10.0 mi SSE 9.2 mph - N/A   Mostly Cloudy
6:15 PM 80.6 °F 83.2 °F 68.0 °F 65% 30.14 in 10.0 mi SE 10.4 mph - N/A   Overcast
6:35 PM 78.8 °F - 68.0 °F 69% 30.14 in 10.0 mi SE 10.4 mph - N/A   Mostly Cloudy
6:55 PM 77.0 °F - 68.0 °F 74% 30.14 in 10.0 mi SE 11.5 mph - N/A   Clear
7:15 PM 75.2 °F - 68.0 °F 78% 30.14 in 10.0 mi SE 10.4 mph - N/A   Clear
7:35 PM 75.2 °F - 68.0 °F 78% 30.14 in 10.0 mi SE 11.5 mph - N/A   Scattered Clouds
7:55 PM 75.2 °F - 66.2 °F 73% 30.14 in 10.0 mi SE 10.4 mph - N/A   Partly Cloudy
8:15 PM 73.4 °F - 66.2 °F 78% 30.14 in 10.0 mi SE 9.2 mph - N/A   Clear
8:35 PM 73.4 °F - 66.2 °F 78% 30.14 in 10.0 mi SE 10.4 mph - N/A   Clear
9:15 PM 71.6 °F - 66.2 °F 83% 30.14 in 10.0 mi SE 10.4 mph - N/A   Clear
9:35 PM 71.6 °F - 64.4 °F 78% 30.14 in 10.0 mi SE 10.4 mph - N/A   Clear
9:55 PM 71.6 °F - 64.4 °F 78% 30.14 in 10.0 mi SSE 9.2 mph - N/A   Clear
10:15 PM 73.4 °F - 64.4 °F 73% 30.14 in 10.0 mi SSE 11.5 mph - N/A   Clear
10:35 PM 71.6 °F - 64.4 °F 78% 30.14 in 10.0 mi SSE 10.4 mph - N/A   Clear
10:55 PM 71.6 °F - 64.4 °F 78% 30.14 in 10.0 mi SSE 10.4 mph - N/A   Clear
11:15 PM 69.8 °F - 62.6 °F 78% 30.13 in 10.0 mi SSE 10.4 mph - N/A   Clear
11:35 PM 69.8 °F - 62.6 °F 78% 30.12 in 10.0 mi SSE 10.4 mph - N/A   Clear
11:55 PM 69.8 °F - 62.6 °F 78% 30.12 in 10.0 mi SSE 10.4 mph - N/A   Clear